West Lafayette, IN

9:29 PM EST on February 25, 2017 (GMT -0500)
Purdue Univ

Weather History for KLAF - January, 2013

Change the Weather History Date:

Friday, January 4, 2013

  Actual Average Record
Temperature  
Mean Temperature 21 °F 27 °F  
Max Temperature 30 °F 34 °F 66 °F (1997)
Min Temperature 12 °F 19 °F -8 °F (1974)
Degree Days  
Heating Degree Days 44 38  
Month to date heating degree days 185 152  
Since 1 July heating degree days 2380 2327  
Cooling Degree Days 0 0  
Month to date cooling degree days 0 0  
Year to date cooling degree days 0 0  
Moisture  
Dew Point 15 °F    
Average Humidity 73    
Maximum Humidity 84    
Minimum Humidity 62    
Precipitation  
Precipitation 0.00 in 0.07 in 1.54 in (1963)
Month to date precipitation 0.00 0.27  
Year to date precipitation 0.00 0.27  
Sea Level Pressure  
Sea Level Pressure 30.32 in    
Wind  
Wind Speed 9 mph (WSW)    
Max Wind Speed 15 mph    
Max Gust Speed 22 mph    
Visibility 10 miles    
Events      
T = Trace of Precipitation, MM = Missing Value Source: NWS Daily Summary

Daily Weather History Graph

Daily Weather History Graph

Search for Another Location

Airport or City:

Trip Planner

Search our weather history database for the weather conditions in past years. The results will help you decide how hot, cold, wet, or windy it might be!

Date:

Astronomy

Jan. 04, 2013 Rise Set
Actual Time 8:11 AM EST 5:34 PM EST
Civil Twilight 7:40 AM EST 6:05 PM EST
Nautical Twilight 7:06 AM EST 6:39 PM EST
Astronomical Twilight 6:33 AM EST 7:12 PM EST
Moon 12:10 AM EST (1/4) 11:52 AM EST (1/4)
Length of Visible Light 10h 24m
Length of Day
9h 23m
Waning Gibbous, 55% of the Moon is Illuminated
Jan 4
Waning Gibbous
Jan 4
Last Quarter
Jan 11
New
Jan 18
First Quarter
Jan 26
Full

Hourly Weather History & Observations

Time (EST) Temp. Windchill Dew Point Humidity Pressure Visibility Wind Dir Wind Speed Gust Speed Precip Events Conditions
12:54 AM 18.0 °F 9.8 °F 12.0 °F 78% 30.32 in 10.0 mi West 5.8 mph - N/A   Clear
1:54 AM 16.0 °F 8.8 °F 10.9 °F 81% 30.32 in 10.0 mi WSW 4.6 mph - N/A   Clear
2:54 AM 15.1 °F 9.4 °F 10.0 °F 80% 30.33 in 10.0 mi WNW 3.5 mph - N/A   Clear
3:54 AM 15.1 °F 5.2 °F 10.0 °F 80% 30.33 in 10.0 mi West 6.9 mph - N/A   Clear
4:54 AM 15.1 °F 7.7 °F 10.0 °F 80% 30.32 in 10.0 mi WSW 4.6 mph - N/A   Clear
5:54 AM 14.0 °F 3.9 °F 9.0 °F 80% 30.33 in 10.0 mi West 6.9 mph - N/A   Clear
6:54 AM 12.9 °F 2.6 °F 9.0 °F 84% 30.33 in 10.0 mi WSW 6.9 mph - N/A   Clear
8:54 AM 12.9 °F 6.9 °F 8.1 °F 81% 30.35 in 10.0 mi WSW 3.5 mph - N/A   Clear
9:54 AM 16.0 °F 4.4 °F 9.0 °F 74% 30.35 in 10.0 mi WSW 9.2 mph - N/A   Clear
10:54 AM 18.0 °F 6.9 °F 10.0 °F 71% 30.36 in 10.0 mi WSW 9.2 mph - N/A   Clear
11:54 AM 19.9 °F 7.3 °F 12.0 °F 71% 30.36 in 10.0 mi SW 12.7 mph - N/A   Clear
12:54 PM 24.1 °F 12.0 °F 14.0 °F 65% 30.33 in 10.0 mi SW 13.8 mph - N/A   Clear
1:54 PM 26.1 °F 15.0 °F 17.1 °F 69% 30.30 in 10.0 mi WSW 12.7 mph - N/A   Clear
2:54 PM 28.0 °F 17.5 °F 19.0 °F 69% 30.30 in 10.0 mi SW 12.7 mph 19.6 mph N/A   Clear
3:54 PM 28.9 °F 18.2 °F 21.0 °F 72% 30.30 in 10.0 mi WSW 13.8 mph - N/A   Clear
4:54 PM 28.9 °F 19.2 °F 21.0 °F 72% 30.30 in 10.0 mi SW 11.5 mph - N/A   Clear
5:54 PM 28.0 °F 18.1 °F 21.0 °F 75% 30.30 in 10.0 mi WSW 11.5 mph 20.7 mph N/A   Clear
6:54 PM 27.0 °F 17.3 °F 21.0 °F 78% 30.30 in 10.0 mi WSW 10.4 mph - N/A   Clear
7:54 PM 27.0 °F 18.0 °F 19.0 °F 72% 30.31 in 10.0 mi WSW 9.2 mph - N/A   Clear
8:54 PM 26.1 °F 18.4 °F 19.0 °F 75% 30.31 in 10.0 mi WSW 6.9 mph - N/A   Clear
9:54 PM 25.0 °F 16.3 °F 18.0 °F 75% 30.31 in 10.0 mi WSW 8.1 mph - N/A   Clear
10:54 PM 25.0 °F 16.3 °F 19.0 °F 78% 30.32 in 10.0 mi WSW 8.1 mph - N/A   Clear
11:54 PM 24.1 °F 16.0 °F 18.0 °F 77% 30.33 in 10.0 mi WSW 6.9 mph - N/A   Clear